Regional Weather Roundup
Issued by NWS Wakefield, VA

Home | Current Version | Previous Version | Graphics & Text | Print | Product List | Glossary On
Versions: 1 2 3 4 5 6 7 8 9 10 11 12 13 14 15 16 17 18 19 20 21 22 23 24 25 26 27 28 29 30 31 32 33 34 35 36 37 38 39 40 41 42 43 44 45 46 47 48 49
000
ASUS41 KAKQ 290710
RWRAKQ

REGIONAL WEATHER ROUNDUP
NATIONAL WEATHER SERVICE WAKEFIELD VA
200 AM EST THU JAN 29 2015

Note: "fair" indicates few or no clouds below 12,000 feet with no
significant weather and/or obstructions to visibility. * = Denotes
station may not report precipitation (e.g., rain,snow,etc.),
thunder or fog.

VAZ042-051-052>054-056-290800-
NORTHERN VIRGINIA

CITY           SKY/WX    TMP DP  RH WIND       PRES   REMARKS
WASH NATIONAL  CLEAR     27   8  44 N3        30.35S
DULLES         CLEAR     17  10  74 CALM      30.34R
FORT BELVOIR   CLEAR     20  14  76 W2        30.35S
QUANTICO       CLEAR     23  12  62 NW6       30.37R
FREDERICKSBRG* CLEAR     22  15  73 CALM      30.34S
STAFFORD*      CLEAR     22   8  56 CALM      30.38S
WARRENTON      CLEAR     16  16 100 CALM      30.33S
CULPEPER*      CLEAR     18  14  86 CALM      30.33S
MANASSAS*      CLEAR     16  14  93 CALM      30.35S
LEESBURG*      CLEAR     23  10  58 N5        30.33F
WINCHESTER     PTCLDY    19   7  58 CALM      30.31S
FRONT ROYAL*   FAIR      18  12  79 CALM      30.30S
LURAY*         FAIR      19  18  93 CALM      30.30S
$$

VAZ048-049-060>072-079>083-290800-
CENTRAL AND SOUTH CENTRAL VIRGINIA

CITY           SKY/WX    TMP DP  RH WIND       PRES   REMARKS
RICHMOND       CLEAR     27  10  49 N6        30.34S
CHESTERFIELD*  FAIR      18   3  53 CALM      30.35S
PETERSBURG*    CLEAR     19  17  92 CALM      30.35F
HANOVER        CLEAR     20  11  68 CALM      30.35F
TAPPAHANNOCK*  CLEAR     19  11  69 CALM      30.35R
QUINTON*       FAIR      23   8  53 CALM      30.35S
CHARLOTTSVILLE CLEAR     24   3  40 CALM      30.31S
GORDONSVILLE*  FAIR      16  13  88 CALM      30.33R
ORANGE*        CLEAR     19  18  93 CALM      30.34S
LOUISA*        CLEAR     19   7  58 CALM      30.31S
BUMPASS*       FAIR      22  11  63 CALM      30.33S
FARMVILLE*     CLEAR     17  10  74 CALM      30.33R
CREWE*         FAIR      20  14  78 CALM      30.33S
FORT PICKETT*  FAIR      22  13  68 CALM      30.33S
CHASE CITY*    FAIR      29   8  42 CALM      30.32S
CLARKSVILLE*   FAIR      23  18  80 E3        30.32S
SOUTH HILL*    CLEAR     21  15  77 CALM      30.39S
LAWRENCEVILLE* FAIR      22  17  81 CALM      30.33S
EMPORIA*       CLEAR     19  18  93 CALM      30.36S
$$

VAZ088>098-290800-
SOUTHEAST VIRGINIA

CITY           SKY/WX    TMP DP  RH WIND       PRES   REMARKS
NORFOLK        CLEAR     33  13  43 N12       30.33R WCI  24
VIRGINIA BEACH CLEAR     29  14  53 N5        30.32S
NORFOLK NAVAL  CLEAR     32  12  43 N9        30.35R
WEST POINT*    CLEAR     20  14  79 CALM      30.36S
SALUDA*        FAIR      29  11  47 NW6       30.33S
NEWPORT NEWS   CLEAR     30  11  45 N3        30.34R
LANGLEY AFB    CLEAR     26  13  57 NW6       30.34R
FORT EUSTIS    CLEAR     30  14  52 N2        30.32S
WILLIAMSBURG*    N/A     28  12  50 N3        30.35S
HR EXEC AP*    FAIR      19  10  68 CALM      30.36S
FRANKLIN*      CLEAR     24  10  55 CALM      30.35S
WAKEFIELD      CLEAR     22  11  62 CALM      30.35S
$$

VAZ020-022-025-037-045-290800-
WEST CENTRAL AND SOUTHWEST VIRGINIA

CITY           SKY/WX    TMP DP  RH WIND       PRES   REMARKS
STAUNTON*      PTCLDY    18  13  81 CALM      30.30S
WAYNESBORO*    FAIR      17  10  71 CALM      30.27S
HOT SPRINGS VA CLEAR     22   7  52 SW9       30.15R
LYNCHBURG      CLEAR     21  10  62 CALM      30.32R
DANVILLE       CLEAR     22  15  75 CALM      30.33R
SOUTH BOSTON*  FAIR      20  16  83 CALM      30.33S
MARTINSVILLE   CLEAR     21  16  81 CALM      30.35R
ROANOKE        CLEAR     26  13  57 CALM      30.32S
BLACKSBURG     PTCLDY    21  13  71 E3        30.27F
DUBLIN*        PTCLDY    23  17  80 CALM      30.26S
MARION*        CLEAR     24  18  78 E3        30.24S
HILLSVILLE*    PTCLDY    28  17  64 S6        30.22S
RICHLANDS*     FAIR      31  11  43 SE5       30.15F
WISE*          PTCLDY    34  12  40 S8        30.15F
ABINGDON*      PTCLDY    31  21  67 E7        30.20F
$$

MDZ021>025-VAZ099-100-290800-
SOUTHERN MARYLAND AND THE DELMARVA PENINSULA

CITY           SKY/WX    TMP DP  RH WIND       PRES   REMARKS
PATUXENT RIVER CLEAR     23   9  55 W7        30.33S
BAY BRIDGE APT   N/A     28  10  47 NW7       30.33S
LEONARDTOWN    CLEAR     23  10  58 CALM      30.34S
DOVER          CLEAR     22   9  58 W6        30.32R
GEORGETOWN     CLEAR     23  11  60 CALM      30.32R
EASTON         CLEAR     26  16  64 CALM      30.35F
CAMBRIDGE      CLEAR     32  16  51 NW3       30.31S
SALISBURY      CLEAR     25  12  58 NW5       30.31S
OCEAN CITY     CLEAR     25  10  53 NW8       30.32R
WALLOPS ISLAND CLEAR     25  12  58 N8        30.32R
ACCOMACK*      CLEAR     30  12  47 N7        30.32S
$$

NCZ012>017-030>032-290800-
NORTH CENTRAL AND EASTERN NORTH CAROLINA

CITY           SKY/WX    TMP DP  RH WIND       PRES   REMARKS
ROANOKE RAPIDS FAIR      23  19  86 CALM      30.35S
RALEIGH        PTCLDY    26  14  60 CALM      30.33S
ELIZABETH CITY CLEAR     28  14  55 NW8       30.34R
AHOSKIE*       CLEAR     22  16  77 CALM      30.35F
EDENTON*       CLEAR     26  17  69 CALM      30.35R
CURRITUCK*     CLEAR     28  16  61 CALM      30.34R
KILL DEVIL HLS CLEAR     33  19  55 N5        30.30R
MANTEO         CLEAR     34  19  55 N8        30.32R
CAPE HATTERAS  CLEAR     35  22  58 VRB5      30.31S
TARBORO*       FAIR      21  20  93 CALM      30.36F
GOLDSBORO      CLEAR     24  23  97 CALM      30.32F
WASHINGTON     CLEAR     27  13  55 NE3       30.35S
GREENVILLE     CLEAR     23  21  93 CALM      30.35S
NEW BERN       CLEAR     27  21  78 CALM      30.36R
WILMINGTON     CLEAR     25  21  85 CALM      30.34S
$$

VAZ048-290800-
ELSEWHERE

CITY           SKY/WX    TMP DP  RH WIND       PRES   REMARKS
HARRISBURG PA  PTCLDY    17   7  64 NW12      30.32S WCI   4
BALTIMORE      PTCLDY    22   7  52 W3        30.32S
ANNAPOLIS      CLEAR     26   8  46 W5        30.33S
ANDREWS AFB    CLEAR     25   8  48 NW5       30.32S
PHILADELPHIA   PTCLDY    25   2  37 N5        30.32R
HENDERSON NC   CLEAR     29  10  45 CALM      30.32S
GREENSBORO     CLEAR     31  13  47 CALM      30.30S
ROCKY MOUNT    CLEAR     24  18  77 CALM      30.35S
$$

VAZ100-290800-
MARINE

STATION/POSITION TIME  TEMP    WIND        PRES    WAVE   SWELL
                       AIR SEA DIR/SP/G            HT/PER HT/PER
                 (UTC) (F)     (DEG/KT/KT) (MB)    (FT/S) (FT/S)
BRANDYWINE LGT   0700          360/ 18/ 20   N/A
CAPE MAY NJ      0700   29 35  350/  2/  9 1026.1R
LEWES DE         0700   29 33  310/ 11/ 14 1026.5R
15NM E FENWICK I 0700   32 40              1025.3R   5/ 5
OCEAN-CITY-INLET 0700   27 37  340/  9/ 11 1026.0R
WACHAPREAGUE VA  0700   29 36  310/  2/  5 1026.6F
THOMAS POINT MD  0700   28 36  310/ 11/ 12 1028.0S
COVE POINT MD    0700   30     350/ 13/ 14 1026.6S
SOLOMONS ISLAND  0700      37                N/A
BISHOPS HEAD MD  0700   27 33  320/  6/  6 1026.3R
PINEY POINT MD   0700          350/ 12/ 12   N/A
CAMBRIDGE MD     0700   30 35  330/  7/ 10 1026.6R
LEWISETTA VA     0700   31 36  320/  4/  6 1026.9S
RAPPAHANNOCK LGT 0700          360/ 17/ 20 1027.2S
YORK RVR RNG VA  0700   31     330/  9/ 12 1026.5F
YORKTOWN VA      0700   30 39  330/  9/ 10 1027.1S
DOMINION TERM VA 0700   31      CALM  /  2 1027.4S
KIPTOPEKE VA     0700      43   20/  5/  6   N/A
CHES BAY BRIDGE  0700   34 40  340/ 14/ 16 1026.6S
CAPE HENRY VA    0700   34     360/ 17/ 19 1025.5S
CHESAPEAKE LGHT  0600   34     360/ 19/ 22 1026.8F
WILLOUBY STN VA  0700   31     340/  9/ 10 1027.6F
S CRANEY ISL VA  0700          350/  8/ 12 1027.1F
CAPE HENRY BUOY  0600      42                N/A     5/ 7   2/11
CAPE CHARLES BUO 0700      41                N/A     4/13   2/13
OFFSHORE WE BUOY 0700      43                N/A     6/ 7   3/13
64NM E OF VA BCH 0700   37 50  350/ 16/ 19 1024.9R   6/ 8   3/ 8
DUCK PIER NC     0700   36 42   10/ 15/ 18 1025.6R
44100 DUCK FRF   0700      45                N/A     6/ 7   2/13
44056 DUCK FRF   0700      42                N/A     5/ 7   2/13
OREGON INLET NC  0700   34 43  340/  7/ 11 1026.4R
HATTERAS NC      0700   37 43  350/ 15/ 17 1026.7R
DIAMOND SHLS NC  0700   40 71  340/ 16/ 19 1025.7R   7/11   5/11
CAPE LOOKOUT NC  0600   38     340/ 11/ 14 1026.5F
$$


USA.gov is the U.S. government's official web portal to all federal, state and local government web resources and services.